Regional Weather Roundup
Issued by NWS

Home | Current Version | Previous Version | Graphics & Text | Print | Product List | Glossary On
Versions: 1 2 3 4 5 6 7 8 9 10 11 12 13 14 15 16 17 18 19 20 21 22 23 24 25 26 27 28 29 30 31 32 33 34 35 36 37 38 39 40 41 42 43 44 45 46 47 48 49 50
745
ASUS45 KABQ 301010
RWRNM
NEW MEXICO REGIONAL WEATHER ROUNDUP
NATIONAL WEATHER SERVICE ALBUQUERQUE NM
400 AM MDT THU MAR 30 2017

NOTE: "FAIR" MEANS FEW OR NO CLOUDS BELOW 12,000 FEET AGL WITH NO
       SIGNIFICANT WEATHER OR OBSTRUCTIONS TO VISION.

      THIS PRODUCT IS RELEASED AS TWO VERSIONS.  ONE VERSION NEAR
      THE TOP OF THE HOUR CONTAINING PRELIMINARY DATA FROM ALBUQUERQUE
      AND OTHER STATIONS.  A FINAL VERSION WITH ADDITIONAL DATA IS
      ISSUED ABOUT 10 MINUTES AFTER THE HOUR.

NMZ501-503-504-510>518-301100-
NORTHWEST PLATEAU/NORTHCENTRAL MOUNTAINS

CITY           SKY/WX    TMP DP  RH WIND       PRES   REMARKS
FARMINGTON     FAIR      40  21  46 W6        30.01F
LOS ALAMOS     FAIR      37  33  85 NW5       30.04F WCI  33
SANTA FE       FAIR      37  35  92 CALM      30.02F
TAOS             N/A     30  21  69 CALM      30.04F

$$
NMZ402-403-502-505>509-301100-
WESTCENTRAL MOUNTAINS/SOUTHWEST MOUNTAINS

CITY           SKY/WX    TMP DP  RH WIND       PRES   REMARKS
GALLUP         FAIR      24  18  77 SE3       30.09F
GRANTS         FAIR      26  21  81 W5        30.09F WCI  21
SILVER CITY    FAIR      34  29  82 N9        30.08F WCI  27

$$
NMZ407-409-411-412-301100-
SOUTHERN DESERTS

CITY           SKY/WX    TMP DP  RH WIND       PRES   REMARKS
DEMING         FAIR      39  33  79 NW6       30.06F WCI  35
LAS CRUCES     FAIR      40  36  83 W5        30.06F
HOLLOMAN AFB   FAIR      39  37  94 NE7       30.08F WCI  34
ALAMOGORDO       N/A    N/A N/A N/A MISG        N/A
T OR C         FAIR      43  35  73 W7        30.04F

$$
NMZ519>523-301100-
CENTRAL VALLEYS/CENTRAL HIGHLANDS

CITY           SKY/WX    TMP DP  RH WIND       PRES   REMARKS
ALBUQUERQUE    FAIR      41  36  82 SE6       30.03F
MORIARTY ARPT  FAIR      29  28  98 N5        30.03F WCI  23
CLINES CORNERS NOT AVBL
BELEN          FAIR      42  38  89 S8        30.03F
SOCORRO        FAIR      40  38  94 S7        30.04S WCI  35

$$
NMZ524>526-539-540-301100-
SOUTHCENTRAL MOUNTAINS

CITY           SKY/WX    TMP DP  RH WIND       PRES   REMARKS
RUIDOSO        FAIR      36  32  87 W3        30.07F

$$
NMZ527>531-301100-
NORTHEAST HIGHLANDS/NORTHEAST PLAINS

CITY           SKY/WX    TMP DP  RH WIND       PRES   REMARKS
LAS VEGAS      FAIR      33  29  85 N3        29.95F
RATON          FAIR      27  24  89 NE8       29.93F WCI  19
CLAYTON        FAIR      39  35  86 W12       29.88F WCI  32

$$
NMZ532>537-301100-
EASTCENTRAL PLAINS

CITY           SKY/WX    TMP DP  RH WIND       PRES   REMARKS
TUCUMCARI      FAIR      41  38  89 SW7       29.88F
CANNON AFB     FAIR      42  42 100 W13       29.93F
CLOVIS AIRPORT FAIR      41  36  81 W10       29.93F

$$
NMZ028-029-538-301100-
SOUTHEAST PLAINS

CITY           SKY/WX    TMP DP  RH WIND       PRES   REMARKS
ROSWELL        FAIR      40  36  86 E5          N/A
ARTESIA        FAIR      41  36  81 CALM      29.98F
CARLSBAD       FAIR      39  31  72 CALM      29.97F


$$




USA.gov is the U.S. government's official web portal to all federal, state and local government web resources and services.